sat.trackr.live / text

‹ back to catalog

HULIANWAN GAOGUI-02 (H*)

NORAD 60327 · 2024-135A

PAYLOAD ACTIVE UNKNOWN

§ Identity

Operator
Country
PRC
Launch date
2024-08-01
Launch site
XICLF
Launch vehicle
Mass (kg)
RCS (m²)

Purposes: comms

External: N2YO · Heavens-Above · Gunter

§ Orbital elements

Epoch: 2026-09-19T05:43:09.995232Z

Period
1,436.08 min
Inclination
0.0631°
Eccentricity
0.0004345
Mean motion
1.00272962 rev/d
Perigee alt
35,767.9 km
Apogee alt
35,804.6 km
Semi-major
42,164.4 km
B*
0.0000e+0
RAAN
346.9791°
Arg perigee
8.3784°
Mean anomaly
241.6814°
Rev number
843

§ Raw data

HULIANWAN GAOGUI-02 (H*)1 60327U 24135A   26262.23831013 -.00000177  00000+0  00000+0 0  99962 60327   0.0631 346.9791 0004345   8.3784 241.6814  1.00272962  8435

JSON: /api/v1/satellites/60327 · /tle

For live sub-satellite position, see the globe view (requires WebGL).

§ Visibility from observer

Set your observer location to see the next 7 days of passes ≥ 10°. The values pass through the URL so the page stays shareable.

No JS? Fill the form by hand. The geolocation button needs JavaScript.